|  Orbital Elements
The following orbital elements are taken from MPEC 2008-G65:
Epoch 2008 May 14.0 TT = JDT 2454600.5                  MPC
M   6.27251              (2000.0)            P               Q
n   0.05639767     Peri.  309.22450     -0.74219335     -0.66448301
a   6.7343440      Node   190.23358     +0.65754577     -0.74716223
e   0.7352014      Incl.   29.41051     -0.12954761     +0.01452365
P  17.5            H   13.4           G   0.15           U   1
From 277 observations at 3 oppositions, 2005-2008, mean residual 0".37.
 
 |